Tracking 19709 objects as of 17-Jun-2019
HD Live streaming from Space Station
objects crossing your sky now

COSMOS 2168

Track COSMOS 2168 now!
10-day predictions
COSMOS 2168 is classified as:


NORAD ID: 21782
Int'l Code: 1991-077D
Perigee: 1,395.9 km
Apogee: 1,419.3 km
Inclination: 82.6 °
Period: 113.8 minutes
Semi major axis: 7778 km
RCS: 1.1161 m2 (large)
Launch date: November 12, 1991
Source: Commonwealth of Independent States (former USSR) (CIS)
Launch site: PLESETSK MISSILE AND SPACE COMPLEX (PKMTR)
aabbcc
Your satellite tracking list
Your tracking list is empty




NASA's NSSDC Master Catalog

Two Line Element Set (TLE):
1 21782U 91077D   19168.19015272  .00000029  00000-0  99746-4 0  9996
2 21782  82.5984  50.0035 0015049  93.7806  69.0992 12.65460933274628
Source of the keplerian elements: AFSPC